[[{"header":{"parameterUnit":"m.s-1","parameterCategory":1,"la1":30.2991,"la2":30.254,"lo1":-89.0895,"lo2":-89.0444,"dy":0.0017,"dx":0.0017,"nx":28,"ny":28,"refTime":"2024-12-12T09:00:00:Z","depth":0,"parameterNumber":2,"parameterNumberName":"U-component_of_WINDS"},"data":[0,0,0,0,0,0,0,0,0,0,0,0,0,0,0,0,0,0,0,0,0,0,0,0,0,0,0,0,0,0,0,0,0,0,0,0,0,0,0,0,0,0,0,0,0,0,0,0,0,0,0,0,0,0,0,0,0,0,-5.942,-5.942,0,-5.9486,-5.9487,-5.9487,-5.9326,-5.9321,-5.9316,-5.9311,-5.9382,-5.9388,-5.9395,0,0,0,0,0,0,0,0,0,0,0,0,0,-5.9156,-5.9162,-5.942,-5.942,-5.9421,-5.9486,-5.9487,-5.9488,-5.9327,-5.9321,-5.9315,-5.9309,-5.938,-5.9388,-5.9395,0,0,0,0,0,0,0,0,0,0,0,0,0,-5.9252,-5.9164,-5.942,-5.9349,-5.9343,-5.9486,-5.9487,-5.9488,-5.9329,-5.9321,-5.9313,-5.9306,-5.9377,-5.9387,-5.9397,-5.9611,0,0,-5.9427,-5.9431,0,0,0,0,0,0,0,0,-5.9246,-5.9261,-5.9359,-5.9354,-5.9348,-5.939,-5.9419,-5.9529,-5.933,-5.9334,-5.9311,-5.9302,-5.9391,-5.9399,-5.9429,-5.9614,-5.9617,-5.9428,-5.9434,-5.9438,-5.9441,0,0,0,0,0,0,0,-5.924,-5.9258,-5.9446,-5.936,-5.9354,-5.9315,-5.932,-5.9439,-5.9405,-5.9333,-5.9322,-5.9332,-5.9387,-5.9419,-5.9429,-5.9618,-5.9428,-5.9436,-5.9443,-5.9446,-5.9983,-5.9991,0,0,0,0,0,0,-5.9242,-5.9253,-5.9444,-5.9448,-5.9277,-5.9326,-5.9331,-5.9384,-5.9403,-5.9398,-5.9338,-5.9324,-5.9406,-5.9418,-5.9431,-5.9683,-5.9438,-5.9447,-5.9453,-5.9975,-5.9985,-5.9994,0,0,0,0,0,0,-5.9237,-5.9261,-5.9441,-5.9347,-5.9367,-5.9338,-5.9399,-5.939,-5.9422,-5.9407,-5.94,-5.9378,-5.9401,-5.9417,-5.9567,-5.9683,-5.9452,-5.9461,-5.9965,-5.9978,-5.9989,-6.019,0,0,0,0,0,0,-5.923,-5.926,-5.9341,-5.935,-5.9373,-5.9576,-5.9406,-5.9396,-5.9439,-5.9421,-5.9442,-5.9438,-5.9396,-5.9553,-5.9577,-5.9693,-5.9469,-5.9955,-5.9971,-5.9985,-6.0173,-6.0207,-6.0237,0,0,0,0,0,-5.9221,-5.9395,-5.9346,-5.9369,-5.9473,-5.9583,-5.9596,-5.9543,-5.9449,-5.9531,-5.9521,-5.9438,-5.9667,-5.957,-5.9595,-5.9716,-5.9947,-5.9966,-5.9984,-6.0158,-6.0201,-6.0236,0,0,0,0,0,0,-5.9401,-5.9395,-5.934,-5.9522,-5.9554,-5.9556,-5.9657,-5.959,-5.965,-5.9631,-5.9563,-5.9569,-5.9733,-5.9739,-5.9631,-5.9924,-5.9791,-5.9816,-5.9914,-5.9955,-5.9986,-5.9982,-5.9477,0,0,0,0,0,-5.9461,-5.955,-5.9541,-5.9702,-5.9721,-5.9687,-5.9733,-5.9689,-5.972,-5.9733,-5.9734,-5.9768,-5.9847,-5.9901,-5.9973,-6.0172,-6.0175,-6.0268,-6.03,-6.0327,-6.0349,-6.0455,-6.0496,-6.0055,-6.0055,-6.0055,0,0,-5.9588,-5.9595,-5.9656,-5.9738,-5.9758,-5.9853,-5.9699,-5.9806,-5.9875,-5.9749,-5.9891,-5.9893,-5.9926,-6.0102,-6.018,-6.0113,-6.0471,-6.035,-6.0372,-6.038,-6.0478,-6.052,-6.0557,-6.0068,-6.0065,-6.0063,0,0,-5.9866,-5.9881,-6.0017,-6.004,-6.0071,-6.0047,-6.008,-6.0092,-6.0088,-6.0229,-6.0136,-6.0218,-6.0357,-6.0384,-6.0416,-6.0705,-6.0631,-6.073,-6.09,-6.1004,-6.1038,-6.1069,-6.1172,-6.121,-6.0753,-6.0753,-6.0753,0,-6.0019,-6.0157,-6.0096,-6.0208,-6.0247,-6.0137,-6.0274,-6.0299,-6.0354,-6.0384,-6.0307,-6.0478,-6.0493,-6.0674,-6.0744,-6.0774,-6.0809,-6.0728,-6.1038,-6.1068,-6.1096,-6.1193,-6.1232,-6.0765,-6.0764,-6.0762,-6.0761,0,-6.0344,-6.0441,-6.0547,-6.0602,-6.0653,-6.0778,-6.0735,-6.0794,-6.0746,-6.073,-6.0875,-6.0889,-6.0962,-6.1001,-6.0956,-6.1176,-6.1133,-6.1049,-6.0914,-6.1151,-6.1241,-6.1278,-6.0782,-6.0778,-6.0774,-6.0771,0,0,-6.0738,-6.0756,-6.0796,-6.0819,-6.0846,-6.092,-6.104,-6.111,-6.1162,-6.1204,-6.1303,-6.1422,-6.1344,-6.138,-6.1337,-6.1428,-6.1656,-6.1332,-6.1332,-6.1392,-6.19,-6.1964,-6.2008,-6.1607,-6.1614,-6.1619,-6.1897,0,-6.1013,-6.1218,-6.1166,-6.137,-6.1459,-6.1355,-6.1459,-6.1487,-6.1476,-6.155,-6.1537,-6.1623,-6.1513,-6.1534,-6.162,-6.161,-6.1757,-6.1589,-6.1699,-6.1704,-6.1694,-6.2055,-6.2123,-6.2385,-6.1932,-6.1938,-6.1942,0,-6.1362,-6.1416,-6.1629,-6.164,-6.1675,-6.177,-6.183,-6.1902,-6.1932,-6.1917,-6.1958,-6.1896,-6.2015,-6.1878,-6.2041,-6.1928,-6.197,-6.1972,-6.1981,-6.199,-6.1838,-6.2074,-6.2467,-6.2507,-6.1998,-6.1993,-6.1989,0,-6.1629,-6.1754,-6.1897,-6.192,-6.1937,-6.2006,-6.2017,-6.2039,-6.2084,-6.2137,-6.2166,-6.2233,-6.2269,-6.2323,-6.228,-6.2185,-6.2451,-6.231,-6.2442,-6.2444,-6.2503,-6.25,-6.2909,-6.253,-6.2529,-6.2529,-6.2528,0,-6.1942,-6.2076,-6.2017,-6.2106,-6.2253,-6.2192,-6.234,-6.2338,-6.2359,-6.2445,-6.2359,-6.2442,-6.2381,-6.246,-6.2428,-6.2568,-6.2585,-6.2576,-6.2566,-6.2585,-6.2586,-6.2611,-6.2592,-6.2539,-6.2537,-6.2535,-6.2533,0,-6.2265,-6.223,-6.238,-6.2383,-6.2387,-6.2496,-6.2499,-6.2581,-6.2563,-6.2674,-6.2696,-6.2668,-6.2755,-6.2718,-6.2811,-6.2789,-6.2969,-6.2935,-6.2959,-6.2951,-6.3084,-6.3073,-6.3524,-6.358,-6.3166,-6.3169,-6.3173,0,-6.2467,-6.2568,-6.2582,-6.2633,-6.2649,-6.2733,-6.2779,-6.2723,-6.2774,-6.2815,-6.2893,-6.2973,-6.3033,-6.3179,-6.3167,-6.3237,-6.3204,-6.3358,-6.3214,-6.3229,-6.3207,-6.3202,-6.3212,-6.3387,-6.3392,-6.3395,-6.3399,0,-6.283,-6.2807,-6.2876,-6.294,-6.2997,-6.3044,-6.3084,-6.3132,-6.3077,-6.3139,-6.3227,-6.3275,-6.3368,-6.3449,-6.3511,-6.3522,-6.3453,-6.3444,-6.3478,-6.3498,-6.3508,-6.3504,-6.3038,-6.3434,-6.343,-6.3428,-6.3426,-6.3424,-6.3098,-6.3183,-6.3206,-6.3286,-6.331,-6.3349,-6.3426,-6.3417,-6.3489,-6.3561,-6.3523,-6.3626,-6.3653,-6.3729,-6.375,-6.383,-6.3769,-6.3819,-6.3832,-6.3845,-6.3863,-6.3495,-6.3841,-6.384,-6.3839,-6.3838,-6.3837,0,-6.3457,-6.3466,-6.354,-6.3598,-6.3661,-6.3588,-6.3629,-6.3687,-6.3778,-6.3808,-6.387,-6.3971,-6.4049,-6.4043,-6.4114,-6.418,-6.4149,-6.42,-6.4195,-6.4199,-6.3912,-6.3876,-6.4224,-6.4224,-6.4224,-6.4223,-6.4223,-6.4223,-6.3651,-6.379,-6.3771,-6.3921,-6.3929,-6.4029,-6.4058,-6.4094,-6.4118,-6.4235,-6.4299,-6.4294,-6.431,-6.4382,-6.445,-6.4446,-6.4477,-6.454,-6.4525,-6.4257,-6.4219,-6.4183,-6.4148,-6.4547,-6.4548,-6.4805,-6.4807,-6.4809]},{"header":{"parameterUnit":"m.s-1","parameterCategory":1,"la1":30.2991,"la2":30.254,"lo1":-89.0895,"lo2":-89.0444,"dy":0.0017,"dx":0.0017,"nx":28,"ny":28,"refTime":"2024-12-12T09:00:00:Z","depth":0,"parameterNumber":3,"parameterNumberName":"V-component_of_WINDS"},"data":[0,0,0,0,0,0,0,0,0,0,0,0,0,0,0,0,0,0,0,0,0,0,0,0,0,0,0,0,0,0,0,0,0,0,0,0,0,0,0,0,0,0,0,0,0,0,0,0,0,0,0,0,0,0,0,0,0,0,-2.8097,-2.8096,0,-2.8075,-2.8074,-2.8074,-2.8018,-2.8017,-2.8016,-2.8015,-2.7992,-2.7993,-2.7993,0,0,0,0,0,0,0,0,0,0,0,0,0,-2.8089,-2.8089,-2.8097,-2.8096,-2.8096,-2.8075,-2.8074,-2.8074,-2.8018,-2.8017,-2.8016,-2.8014,-2.7992,-2.7992,-2.7993,0,0,0,0,0,0,0,0,0,0,0,0,0,-2.8082,-2.809,-2.8097,-2.8066,-2.8063,-2.8075,-2.8074,-2.8074,-2.8019,-2.8017,-2.8015,-2.8014,-2.7992,-2.7992,-2.7993,-2.8033,0,0,-2.7995,-2.7996,0,0,0,0,0,0,0,0,-2.8083,-2.8082,-2.8071,-2.8068,-2.8065,-2.8047,-2.8063,-2.806,-2.8019,-2.8036,-2.8015,-2.8013,-2.8012,-2.8011,-2.8011,-2.8032,-2.8031,-2.7995,-2.7996,-2.7996,-2.7996,0,0,0,0,0,0,0,-2.8083,-2.8083,-2.8088,-2.8071,-2.8067,-2.8052,-2.805,-2.8062,-2.8034,-2.8034,-2.803,-2.8028,-2.801,-2.801,-2.801,-2.8031,-2.7995,-2.7996,-2.7997,-2.7997,-2.8081,-2.8083,0,0,0,0,0,0,-2.8088,-2.8084,-2.8089,-2.8087,-2.8069,-2.8054,-2.8051,-2.8055,-2.8034,-2.8029,-2.803,-2.8026,-2.801,-2.8009,-2.8009,-2.8052,-2.7996,-2.7997,-2.7997,-2.8079,-2.8081,-2.8083,0,0,0,0,0,0,-2.8088,-2.8089,-2.8089,-2.8084,-2.8083,-2.8056,-2.8061,-2.8055,-2.8055,-2.803,-2.8025,-2.8035,-2.8008,-2.8008,-2.8027,-2.805,-2.7997,-2.7998,-2.8077,-2.808,-2.8082,-2.814,0,0,0,0,0,0,-2.8088,-2.809,-2.8105,-2.8085,-2.8084,-2.8109,-2.8062,-2.8056,-2.8057,-2.8051,-2.8034,-2.8029,-2.8007,-2.8026,-2.8028,-2.805,-2.7998,-2.8075,-2.8078,-2.8081,-2.8136,-2.8145,-2.8152,0,0,0,0,0,-2.8088,-2.8123,-2.8106,-2.8107,-2.8103,-2.811,-2.8109,-2.8083,-2.8059,-2.8074,-2.8057,-2.803,-2.8048,-2.8028,-2.803,-2.8053,-2.8073,-2.8077,-2.8081,-2.8133,-2.8143,-2.8152,0,0,0,0,0,0,-2.8147,-2.812,-2.8101,-2.813,-2.8123,-2.8101,-2.8119,-2.8095,-2.8094,-2.8089,-2.8056,-2.8053,-2.8076,-2.8067,-2.8045,-2.8089,-2.8056,-2.806,-2.8095,-2.8104,-2.8112,-2.8113,-2.7999,0,0,0,0,0,-2.8163,-2.8172,-2.8148,-2.8176,-2.8173,-2.8147,-2.8149,-2.8129,-2.812,-2.8117,-2.8102,-2.8094,-2.8097,-2.81,-2.8103,-2.8135,-2.8129,-2.8151,-2.8159,-2.8166,-2.817,-2.8184,-2.8193,-2.8096,-2.8096,-2.8096,0,0,-2.8197,-2.8183,-2.8191,-2.8187,-2.8179,-2.8188,-2.8145,-2.8156,-2.8162,-2.8118,-2.8135,-2.8124,-2.8113,-2.8138,-2.8148,-2.8131,-2.8195,-2.8171,-2.8177,-2.8177,-2.8189,-2.8198,-2.8206,-2.8099,-2.8099,-2.8098,0,0,-2.8263,-2.8254,-2.8275,-2.8268,-2.8256,-2.8238,-2.8243,-2.8224,-2.8214,-2.8231,-2.8197,-2.8204,-2.8211,-2.8204,-2.8201,-2.8262,-2.8236,-2.8263,-2.8304,-2.8318,-2.8326,-2.8332,-2.8352,-2.836,-2.8268,-2.8268,-2.8268,0,-2.8306,-2.8318,-2.8289,-2.8302,-2.8301,-2.8261,-2.8282,-2.8276,-2.8265,-2.8265,-2.8245,-2.8252,-2.8242,-2.8264,-2.8278,-2.8278,-2.8282,-2.8265,-2.8327,-2.8333,-2.8339,-2.8357,-2.8365,-2.8271,-2.8271,-2.827,-2.827,0,-2.8371,-2.838,-2.8399,-2.8389,-2.8389,-2.8407,-2.8379,-2.8383,-2.8363,-2.8346,-2.8362,-2.8348,-2.8346,-2.835,-2.833,-2.8368,-2.8357,-2.8333,-2.8299,-2.8352,-2.8369,-2.8376,-2.8276,-2.8275,-2.8274,-2.8273,0,0,-2.8474,-2.8446,-2.8453,-2.8447,-2.843,-2.8436,-2.8451,-2.8448,-2.8451,-2.8445,-2.8455,-2.8461,-2.8438,-2.8435,-2.8414,-2.8427,-2.8473,-2.84,-2.8399,-2.8413,-2.8511,-2.8528,-2.8537,-2.8456,-2.8457,-2.8458,-2.8511,0,-2.8534,-2.8557,-2.853,-2.8559,-2.8565,-2.8527,-2.8539,-2.8529,-2.8514,-2.8517,-2.85,-2.8504,-2.8474,-2.8472,-2.8483,-2.8465,-2.8492,-2.8461,-2.8464,-2.8464,-2.8466,-2.8546,-2.8565,-2.8616,-2.8518,-2.8519,-2.852,0,-2.8608,-2.8604,-2.8633,-2.8612,-2.8613,-2.8625,-2.8619,-2.8623,-2.861,-2.8598,-2.8594,-2.8568,-2.858,-2.8547,-2.8561,-2.8541,-2.854,-2.8531,-2.8533,-2.8531,-2.8494,-2.8545,-2.8632,-2.8639,-2.853,-2.8529,-2.8529,0,-2.8677,-2.8679,-2.8696,-2.8692,-2.8669,-2.8677,-2.8668,-2.8654,-2.8653,-2.8648,-2.8647,-2.8643,-2.8641,-2.8638,-2.8612,-2.8591,-2.8629,-2.8594,-2.8618,-2.8618,-2.8627,-2.8626,-2.8713,-2.8629,-2.8629,-2.8629,-2.8629,0,-2.8747,-2.8765,-2.8727,-2.8737,-2.8756,-2.8725,-2.8744,-2.8731,-2.8718,-2.8724,-2.8691,-2.8698,-2.8663,-2.8666,-2.8645,-2.8659,-2.8659,-2.8648,-2.8642,-2.865,-2.8651,-2.8648,-2.8644,-2.8631,-2.863,-2.863,-2.8629,0,-2.8827,-2.8803,-2.8818,-2.8794,-2.8788,-2.8803,-2.8782,-2.879,-2.8772,-2.878,-2.878,-2.8752,-2.8753,-2.8726,-2.8722,-2.8708,-2.873,-2.8719,-2.8734,-2.873,-2.8754,-2.8752,-2.8841,-2.885,-2.8762,-2.8763,-2.8764,0,-2.8873,-2.8886,-2.8863,-2.8864,-2.8856,-2.8859,-2.8858,-2.8827,-2.8827,-2.8812,-2.8822,-2.882,-2.8816,-2.8819,-2.8798,-2.8794,-2.8781,-2.8813,-2.878,-2.8787,-2.8779,-2.8778,-2.8778,-2.8819,-2.882,-2.8821,-2.8822,0,-2.8955,-2.8941,-2.8941,-2.8935,-2.8934,-2.8929,-2.8921,-2.8924,-2.889,-2.8891,-2.8891,-2.8888,-2.8883,-2.8881,-2.8873,-2.8862,-2.8836,-2.8832,-2.8837,-2.8845,-2.8853,-2.8847,-2.8751,-2.883,-2.8829,-2.8829,-2.8828,-2.8828,-2.9018,-2.9027,-2.9011,-2.9011,-2.9002,-2.8994,-2.9,-2.8982,-2.8982,-2.8975,-2.8956,-2.8959,-2.8944,-2.893,-2.8922,-2.8923,-2.8907,-2.8915,-2.8916,-2.8918,-2.8922,-2.8854,-2.8921,-2.8921,-2.8921,-2.8921,-2.892,0,-2.9097,-2.9085,-2.9085,-2.9074,-2.9073,-2.9049,-2.9038,-2.9039,-2.9041,-2.903,-2.9027,-2.9026,-2.9023,-2.9001,-2.8995,-2.9,-2.8988,-2.8999,-2.8998,-2.8995,-2.8937,-2.8933,-2.9009,-2.9009,-2.9009,-2.9009,-2.9009,-2.9009,-2.9138,-2.9151,-2.9135,-2.9143,-2.913,-2.9132,-2.9128,-2.912,-2.9111,-2.9111,-2.9108,-2.9094,-2.9077,-2.907,-2.9066,-2.9059,-2.9058,-2.9073,-2.9063,-2.9009,-2.9,-2.8992,-2.8987,-2.9074,-2.9074,-2.912,-2.9121,-2.9121]}]]